Chignik, AK

5:24 AM AKDT on August 25, 2016 (GMT -0800)
Chignik

Weather History for PAJC - October, 2011

Change the Weather History Date:

Saturday, October 1, 2011

  Actual Average Record
Temperature  
Mean Temperature 48 °F -  
Max Temperature 50 °F 47 °F 53 °F (1999)
Min Temperature 46 °F 41 °F 37 °F (2014)
Degree Days  
Heating Degree Days 17    
Moisture  
Dew Point 37 °F    
Average Humidity 66    
Maximum Humidity 71    
Minimum Humidity 62    
Precipitation  
Precipitation 0.00 in - - ()
Sea Level Pressure  
Sea Level Pressure 29.47 in    
Wind  
Wind Speed 12 mph (West)    
Max Wind Speed 21 mph    
Max Gust Speed 28 mph    
Averages and records for this station are not official NWS values.
T = Trace of Precipitation, MM = Missing Value Source: NWS Daily Summary

Daily Weather History Graph

Daily Weather History Graph

Search for Another Location

Airport or City:

Trip Planner

Search our weather history database for the weather conditions in past years. The results will help you decide how hot, cold, wet, or windy it might be!

Date:

Astronomy

Oct. 01, 2011 Rise Set
Actual Time 8:36 AM AKDT 8:08 PM AKDT
Civil Twilight 7:59 AM AKDT 8:45 PM AKDT
Nautical Twilight 7:15 AM AKDT 9:29 PM AKDT
Astronomical Twilight 6:30 AM AKDT 10:14 PM AKDT
Moon 3:04 PM AKDT (10/1) 10:07 PM AKDT (10/1)
Length of Visible Light 12h 46m
Length of Day
11h 31m
Waxing Crescent, 26% of the Moon is Illuminated
Oct 1
Waxing Crescent
Oct 3
First Quarter
Oct 11
Full
Oct 19
Last Quarter
Oct 26
New

Hourly Weather History & Observations

Time (AKDT) Temp. Windchill Dew Point Humidity Pressure Visibility Wind Dir Wind Speed Gust Speed Precip Events Conditions
12:16 AM 50.0 °F - 37.4 °F 62% 29.40 in - NW 9.2 mph - N/A   Mostly Cloudy
12:36 AM 50.0 °F - 37.4 °F 62% 29.40 in - WNW 10.4 mph - N/A   Overcast
12:56 AM 50.0 °F - 37.4 °F 62% 29.40 in - WNW 11.5 mph - N/A   Overcast
1:16 AM 48.2 °F - 37.4 °F 66% 29.41 in - WNW 10.4 mph 17.3 mph N/A   Overcast
1:36 AM 48.2 °F - 37.4 °F 66% 29.42 in - WNW 10.4 mph 17.3 mph N/A   Overcast
1:56 AM 48.2 °F - 37.4 °F 66% 29.42 in - West 9.2 mph - N/A   Overcast
2:16 AM 48.2 °F - 35.6 °F 62% 29.43 in - WNW 12.7 mph 18.4 mph N/A   Overcast
2:36 AM 48.2 °F - 37.4 °F 66% 29.43 in - NW 8.1 mph 16.1 mph N/A   Overcast
2:56 AM 48.2 °F - 37.4 °F 66% 29.44 in - West 10.4 mph 16.1 mph N/A   Overcast
3:16 AM 48.2 °F - 37.4 °F 66% 29.44 in - WNW 8.1 mph 21.9 mph N/A   Overcast
3:36 AM 46.4 °F 42.4 °F 37.4 °F 71% 29.44 in - West 8.1 mph 18.4 mph N/A   Mostly Cloudy
3:56 AM 46.4 °F 40.7 °F 37.4 °F 71% 29.44 in - West 12.7 mph 25.3 mph N/A   Mostly Cloudy
4:16 AM 46.4 °F 40.7 °F 37.4 °F 71% 29.44 in - West 12.7 mph 27.6 mph N/A   Overcast
4:36 AM 46.4 °F 38.7 °F 35.6 °F 66% 29.45 in - West 20.7 mph 27.6 mph N/A   Overcast
4:56 AM 46.4 °F 39.2 °F 37.4 °F 71% 29.45 in - West 18.4 mph 27.6 mph N/A   Overcast
5:16 AM 46.4 °F 38.7 °F 37.4 °F 71% 29.45 in - West 20.7 mph 27.6 mph N/A   Overcast
5:36 AM 46.4 °F 39.8 °F 35.6 °F 66% 29.46 in - West 16.1 mph 21.9 mph N/A   Overcast
5:56 AM 46.4 °F 40.7 °F 35.6 °F 66% 29.46 in - West 12.7 mph 21.9 mph N/A   Overcast
6:16 AM 46.4 °F 40.1 °F 35.6 °F 66% 29.47 in - West 15.0 mph 21.9 mph N/A   Overcast
6:36 AM 46.4 °F 41.9 °F 35.6 °F 66% 29.47 in - WNW 9.2 mph 20.7 mph N/A   Overcast
6:56 AM 46.4 °F 40.4 °F 37.4 °F 71% 29.47 in - West 13.8 mph 24.2 mph N/A   Mostly Cloudy
7:16 AM 46.4 °F 39.0 °F 37.4 °F 71% 29.48 in - West 19.6 mph 26.5 mph N/A   Overcast
7:36 AM 46.4 °F 40.4 °F 35.6 °F 66% 29.48 in - West 13.8 mph 23.0 mph N/A   Overcast
7:56 AM 46.4 °F 41.9 °F 35.6 °F 66% 29.49 in - West 9.2 mph 20.7 mph N/A   Overcast
8:16 AM 46.4 °F 41.5 °F 35.6 °F 66% 29.49 in - West 10.4 mph 21.9 mph N/A   Overcast
8:36 AM 46.4 °F 40.7 °F 35.6 °F 66% 29.49 in - West 12.7 mph 21.9 mph N/A   Overcast
8:56 AM 46.4 °F 41.5 °F 35.6 °F 66% 29.49 in - WNW 10.4 mph - N/A   Overcast
9:16 AM 46.4 °F 40.7 °F 35.6 °F 66% 29.49 in - West 12.7 mph 20.7 mph N/A   Overcast
9:36 AM 46.4 °F 41.1 °F 37.4 °F 71% 29.49 in - West 11.5 mph 19.6 mph N/A   Overcast
9:56 AM 46.4 °F 41.5 °F 35.6 °F 66% 29.49 in - West 10.4 mph 16.1 mph N/A   Overcast
10:16 AM 46.4 °F 41.9 °F 35.6 °F 66% 29.49 in - WNW 9.2 mph 17.3 mph N/A   Mostly Cloudy
10:36 AM 46.4 °F 41.5 °F 35.6 °F 66% 29.49 in - West 10.4 mph 20.7 mph N/A   Mostly Cloudy
10:56 AM 46.4 °F 40.4 °F 35.6 °F 66% 29.49 in - West 13.8 mph 18.4 mph N/A   Mostly Cloudy
11:16 AM 48.2 °F - 35.6 °F 62% 29.49 in - West 11.5 mph 18.4 mph N/A   Mostly Cloudy
11:36 AM 46.4 °F 39.8 °F 37.4 °F 71% 29.49 in - West 16.1 mph 23.0 mph N/A   Scattered Clouds
11:56 AM 48.2 °F - 37.4 °F 66% 29.49 in - West 17.3 mph 20.7 mph N/A   Mostly Cloudy
12:16 PM 48.2 °F - 37.4 °F 66% 29.50 in - West 13.8 mph 19.6 mph N/A   Mostly Cloudy
12:36 PM 48.2 °F - 37.4 °F 66% 29.50 in - West 15.0 mph 19.6 mph N/A   Mostly Cloudy
12:56 PM 48.2 °F - 37.4 °F 66% 29.51 in - West 11.5 mph 24.2 mph N/A   Overcast
1:16 PM 48.2 °F - 37.4 °F 66% 29.50 in - West 16.1 mph 20.7 mph N/A   Overcast
1:36 PM 48.2 °F - 37.4 °F 66% 29.50 in - West 17.3 mph 24.2 mph N/A   Mostly Cloudy
1:56 PM 48.2 °F - 37.4 °F 66% 29.50 in - West 18.4 mph 23.0 mph N/A   Overcast
2:16 PM 48.2 °F - 37.4 °F 66% 29.50 in - West 16.1 mph 21.9 mph N/A   Overcast
2:36 PM 48.2 °F - 37.4 °F 66% 29.49 in - West 15.0 mph 21.9 mph N/A   Overcast
2:56 PM 48.2 °F - 37.4 °F 66% 29.49 in - West 15.0 mph 19.6 mph N/A   Overcast
3:16 PM 48.2 °F - 37.4 °F 66% 29.49 in - West 16.1 mph - N/A   Overcast
3:36 PM 48.2 °F - 35.6 °F 62% 29.49 in - West 17.3 mph 23.0 mph N/A   Overcast
3:56 PM 48.2 °F - 35.6 °F 62% 29.48 in - West 17.3 mph - N/A   Overcast
4:16 PM 48.2 °F - 37.4 °F 66% 29.48 in - West 16.1 mph - N/A   Overcast
4:36 PM 48.2 °F - 37.4 °F 66% 29.48 in - West 15.0 mph - N/A   Overcast
4:56 PM 48.2 °F - 37.4 °F 66% 29.47 in - West 16.1 mph - N/A   Overcast
5:16 PM 48.2 °F - 35.6 °F 62% 29.47 in - West 12.7 mph - N/A   Overcast
5:36 PM 48.2 °F - 35.6 °F 62% 29.47 in - West 12.7 mph - N/A   Overcast
5:56 PM 48.2 °F - 35.6 °F 62% 29.46 in - West 11.5 mph - N/A   Overcast
6:16 PM 48.2 °F - 35.6 °F 62% 29.46 in - WNW 9.2 mph - N/A   Overcast
6:36 PM 48.2 °F - 35.6 °F 62% 29.46 in - WNW 10.4 mph - N/A   Overcast
6:56 PM 48.2 °F - 35.6 °F 62% 29.46 in - WNW 10.4 mph - N/A   Overcast
7:16 PM 46.4 °F 41.9 °F 35.6 °F 66% 29.47 in - West 9.2 mph - N/A   Overcast
7:36 PM 46.4 °F 41.1 °F 35.6 °F 66% 29.47 in - West 11.5 mph - N/A   Overcast
7:56 PM 46.4 °F 41.9 °F 35.6 °F 66% 29.47 in - West 9.2 mph - N/A   Overcast
8:16 PM 46.4 °F 41.1 °F 35.6 °F 66% 29.47 in - West 11.5 mph - N/A   Overcast
8:36 PM 46.4 °F 41.1 °F 35.6 °F 66% 29.47 in - West 11.5 mph - N/A   Overcast
8:56 PM 46.4 °F 41.9 °F 37.4 °F 71% 29.48 in - WSW 9.2 mph - N/A   Overcast
9:16 PM 46.4 °F 41.9 °F 37.4 °F 71% 29.48 in - West 9.2 mph - N/A   Overcast
9:36 PM 46.4 °F 41.5 °F 35.6 °F 66% 29.48 in - WSW 10.4 mph - N/A   Overcast
9:56 PM 44.6 °F 41.4 °F 35.6 °F 71% 29.48 in - West 5.8 mph - N/A   Overcast
10:16 PM 44.6 °F 39.7 °F 35.6 °F 71% 29.48 in - WSW 9.2 mph - N/A   Overcast
10:36 PM 44.6 °F 41.4 °F 35.6 °F 71% 29.48 in - West 5.8 mph - N/A   Overcast
10:56 PM 44.6 °F 42.2 °F 35.6 °F 71% 29.48 in - West 4.6 mph - N/A   Overcast
11:16 PM 44.6 °F 41.4 °F 35.6 °F 71% 29.48 in - West 5.8 mph - N/A   Overcast
11:36 PM 42.8 °F 41.1 °F 35.6 °F 76% 29.48 in - SE 3.5 mph - N/A   Overcast
11:56 PM 42.8 °F - 33.8 °F 70% 29.48 in - Calm Calm - N/A   Overcast